EN

Hourly Weather Ambes

Today, 23 January, Saturday

Time Temperature Precipitation Wind Pressure Humidity
00:00 +6°C° 0 mm 2 mps 752 mmHg 81%
01:00 +7°C° 0.4 mm 3 mps 751 mmHg 83%
02:00 +6°C° 0.4 mm 4 mps 751 mmHg 86%
03:00 +6°C° 0.4 mm 5 mps 750 mmHg 88%
04:00 +5°C° 0.7 mm 6 mps 749 mmHg 83%
05:00 +6°C° 0.7 mm 7 mps 748 mmHg 77%
06:00 +6°C° 0.7 mm 7 mps 747 mmHg 72%
07:00 +6°C° 0.3 mm 9 mps 747 mmHg 72%
08:00 +6°C° 0.3 mm 11 mps 747 mmHg 71%
09:00 +7°C° 0.3 mm 12 mps 748 mmHg 71%
10:00 +7°C° 0 mm 11 mps 749 mmHg 68%
11:00 +7°C° 0 mm 9 mps 750 mmHg 65%
12:00 +7°C° 0 mm 8 mps 752 mmHg 61%
13:00 +8°C° 0.1 mm 7 mps 752 mmHg 62%
14:00 +8°C° 0.1 mm 6 mps 752 mmHg 63%
15:00 +8°C° 0.1 mm 4 mps 752 mmHg 65%
16:00 +8°C° 0 mm 3 mps 752 mmHg 68%
17:00 +8°C° 0 mm 2 mps 752 mmHg 72%
18:00 +8°C° 0 mm 1 mps 752 mmHg 76%
19:00 +8°C° 0 mm 1 mps 751 mmHg 77%
20:00 +7°C° 0 mm 1 mps 751 mmHg 78%
21:00 +7°C° 0 mm 1 mps 751 mmHg 79%
22:00 +7°C° 0.1 mm 1 mps 751 mmHg 79%
23:00 +7°C° 0.1 mm 1 mps 751 mmHg 80%

Tomorrow, 24 January, Sunday

Time Temperature Precipitation Wind Pressure Humidity
00:00 +6°C° 0.1 mm 1 mps 751 mmHg 81%
01:00 +6°C° 0 mm 1 mps 752 mmHg 82%
02:00 +5°C° 0 mm 2 mps 752 mmHg 83%
03:00 +5°C° 0 mm 2 mps 752 mmHg 84%
04:00 +5°C° 0 mm 2 mps 753 mmHg 86%
05:00 +4°C° 0 mm 3 mps 753 mmHg 88%
06:00 +4°C° 0 mm 4 mps 754 mmHg 89%
07:00 +5°C° 0.3 mm 4 mps 754 mmHg 87%
08:00 +6°C° 0.3 mm 4 mps 754 mmHg 84%
09:00 +6°C° 0.3 mm 5 mps 754 mmHg 81%
10:00 +7°C° 0.4 mm 6 mps 754 mmHg 76%
11:00 +8°C° 0.4 mm 7 mps 754 mmHg 71%
12:00 +7°C° 0.4 mm 8 mps 754 mmHg 67%
13:00 +7°C° 0.3 mm 8 mps 754 mmHg 66%
14:00 +7°C° 0.3 mm 8 mps 754 mmHg 66%
15:00 +6°C° 0.3 mm 8 mps 755 mmHg 66%
16:00 +6°C° 0.1 mm 7 mps 755 mmHg 67%
17:00 +6°C° 0.1 mm 5 mps 756 mmHg 69%
18:00 +5°C° 0.1 mm 4 mps 757 mmHg 70%
19:00 +5°C° 0 mm 4 mps 758 mmHg 71%
20:00 +5°C° 0 mm 3 mps 758 mmHg 72%
21:00 +4°C° 0 mm 3 mps 759 mmHg 74%
22:00 +5°C° 0 mm 2 mps 759 mmHg 75%
23:00 +5°C° 0 mm 2 mps 759 mmHg 76%

Day after tomorrow, 25 January, Monday

Time Temperature Precipitation Wind Pressure Humidity
00:00 +5°C° 0 mm 2 mps 760 mmHg 77%
01:00 +5°C° 0 mm 2 mps 760 mmHg 77%
02:00 +4°C° 0 mm 2 mps 760 mmHg 78%
03:00 +4°C° 0 mm 2 mps 761 mmHg 78%
04:00 +5°C° 0 mm 1 mps 761 mmHg 79%
05:00 +5°C° 0 mm 1 mps 761 mmHg 80%
06:00 +4°C° 0 mm 0 mps 761 mmHg 80%
07:00 +5°C° 0 mm 1 mps 761 mmHg 80%
08:00 +6°C° 0 mm 1 mps 762 mmHg 79%
09:00 +7°C° 0 mm 1 mps 762 mmHg 78%
10:00 +7°C° 0 mm 2 mps 763 mmHg 74%
11:00 +8°C° 0 mm 2 mps 763 mmHg 70%
12:00 +9°C° 0 mm 3 mps 763 mmHg 66%
13:00 +9°C° 0.1 mm 3 mps 763 mmHg 67%
14:00 +9°C° 0.1 mm 3 mps 763 mmHg 68%
15:00 +9°C° 0.1 mm 3 mps 763 mmHg 68%
16:00 +8°C° 0 mm 2 mps 763 mmHg 72%
17:00 +8°C° 0 mm 2 mps 763 mmHg 75%
18:00 +8°C° 0 mm 1 mps 764 mmHg 79%
19:00 +8°C° 0 mm 1 mps 764 mmHg 80%
20:00 +7°C° 0 mm 1 mps 764 mmHg 82%
21:00 +6°C° 0 mm 0 mps 765 mmHg 84%
22:00 +7°C° 0 mm 1 mps 765 mmHg 84%
23:00 +6°C° 0 mm 1 mps 765 mmHg 85%

26 January, Tuesday

Time Temperature Precipitation Wind Pressure Humidity
00:00 +6°C° 0 mm 1 mps 765 mmHg 85%
01:00 +6°C° 0 mm 1 mps 765 mmHg 86%
02:00 +6°C° 0 mm 1 mps 765 mmHg 88%
03:00 +5°C° 0 mm 2 mps 765 mmHg 89%
04:00 +4°C° 0 mm 2 mps 764 mmHg 90%
05:00 +4°C° 0 mm 2 mps 764 mmHg 91%
06:00 +4°C° 0 mm 2 mps 764 mmHg 91%
07:00 +5°C° 0 mm 2 mps 764 mmHg 89%
08:00 +4°C° 0 mm 3 mps 764 mmHg 87%
09:00 +5°C° 0 mm 3 mps 764 mmHg 85%
10:00 +7°C° 0 mm 3 mps 764 mmHg 81%
11:00 +7°C° 0 mm 4 mps 764 mmHg 78%
12:00 +7°C° 0 mm 4 mps 764 mmHg 75%
13:00 +7°C° 0 mm 4 mps 763 mmHg 77%
14:00 +8°C° 0 mm 3 mps 763 mmHg 78%
15:00 +8°C° 0 mm 3 mps 763 mmHg 79%
16:00 +8°C° 0 mm 3 mps 763 mmHg 81%
17:00 +8°C° 0 mm 3 mps 763 mmHg 84%
18:00 +8°C° 0 mm 2 mps 763 mmHg 86%
19:00 +9°C° 0 mm 2 mps 763 mmHg 90%
20:00 +9°C° 0 mm 2 mps 764 mmHg 93%
21:00 +10°C° 0 mm 2 mps 764 mmHg 97%
22:00 +11°C° 0 mm 3 mps 764 mmHg 97%
23:00 +11°C° 0 mm 3 mps 765 mmHg 97%

27 January, Wednesday

Time Temperature Precipitation Wind Pressure Humidity
00:00 +12°C° 0 mm 3 mps 765 mmHg 97%
01:00 +11°C° 0 mm 3 mps 766 mmHg 96%
02:00 +11°C° 0 mm 3 mps 766 mmHg 96%
03:00 +11°C° 0 mm 3 mps 766 mmHg 95%
04:00 +10°C° 0 mm 3 mps 766 mmHg 94%
05:00 +10°C° 0 mm 2 mps 766 mmHg 94%
06:00 +11°C° 0 mm 1 mps 767 mmHg 93%
07:00 +11°C° 0 mm 1 mps 767 mmHg 92%
08:00 +12°C° 0 mm 1 mps 767 mmHg 90%
09:00 +12°C° 0 mm 1 mps 767 mmHg 89%
10:00 +12°C° 0 mm 1 mps 768 mmHg 85%
11:00 +13°C° 0 mm 2 mps 768 mmHg 82%
12:00 +14°C° 0 mm 2 mps 768 mmHg 78%
13:00 +14°C° 0 mm 2 mps 767 mmHg 79%
14:00 +14°C° 0 mm 2 mps 767 mmHg 79%
15:00 +14°C° 0 mm 1 mps 766 mmHg 80%
16:00 +13°C° 0 mm 1 mps 766 mmHg 84%
17:00 +12°C° 0 mm 1 mps 766 mmHg 88%
18:00 +10°C° 0 mm 2 mps 766 mmHg 92%
19:00 +12°C° 0 mm 2 mps 766 mmHg 93%
20:00 +12°C° 0 mm 2 mps 765 mmHg 94%
21:00 +11°C° 0 mm 3 mps 765 mmHg 94%
22:00 +11°C° 0.3 mm 3 mps 765 mmHg 93%
23:00 +11°C° 0.3 mm 3 mps 765 mmHg 92%

28 January, Thursday

Time Temperature Precipitation Wind Pressure Humidity
00:00 +11°C° 0.3 mm 3 mps 765 mmHg 91%
01:00 +11°C° 0.1 mm 3 mps 765 mmHg 91%
02:00 +12°C° 0.1 mm 3 mps 765 mmHg 90%
03:00 +12°C° 0.1 mm 3 mps 765 mmHg 89%
04:00 +12°C° 0 mm 3 mps 765 mmHg 91%
05:00 +12°C° 0 mm 3 mps 765 mmHg 92%
06:00 +11°C° 0 mm 3 mps 765 mmHg 94%
07:00 +12°C° 0 mm 3 mps 765 mmHg 93%
08:00 +12°C° 0 mm 4 mps 765 mmHg 92%
09:00 +13°C° 0 mm 4 mps 765 mmHg 92%
10:00 +13°C° 0 mm 5 mps 766 mmHg 87%
11:00 +14°C° 0 mm 5 mps 766 mmHg 82%
12:00 +15°C° 0 mm 6 mps 766 mmHg 78%
13:00 +14°C° 0 mm 5 mps 766 mmHg 78%
14:00 +14°C° 0 mm 5 mps 766 mmHg 78%
15:00 +14°C° 0 mm 5 mps 766 mmHg 78%
16:00 +13°C° 0 mm 4 mps 766 mmHg 83%
17:00 +13°C° 0 mm 3 mps 766 mmHg 88%
18:00 +12°C° 0 mm 3 mps 766 mmHg 94%
Show more